QPF
0.00 0.00 0.00 0.00 0.00 0.00 0.00 0.00 0.00 0.00 0.00 0.00 0.00 0.00 0.00 0.00 0.00 0.00 0.00 0.00 0.00 0.00 0.00 0.00 0.00 0.00 0.00 0.00 0.00 0.04 0.04 0.01 0.00 0.00 0.00 0.01 0.01 0.00 0.01 0.01 0.01 0.01 0.01 0.00 0.00
0.00 0.00 0.00 0.00 0.00 0.00 0.00 0.00 0.00 0.00 0.00 0.00 0.00 0.00 0.00 0.00 0.00 0.00 0.00 0.00 0.00 0.00 0.00 0.00 0.00 0.00 0.00 0.00 0.04 0.06 0.02 0.00 0.01 0.00 0.00 0.00 0.01 0.00 0.00 0.02 0.00 0.00 0.00 0.00 0.00
0.00 0.00 0.00 0.00 0.00 0.00 0.00 0.00 0.00 0.00 0.00 0.00 0.00 0.00 0.00 0.00 0.00 0.00 0.00 0.00 0.00 0.00 0.00 0.00 0.00 0.00 0.00 0.00 0.02 0.03 0.01 0.00 0.00 0.00 0.01 0.00 0.00 0.00 0.01 0.02 0.00 0.00 0.00 0.00 0.00
0.00 0.00 0.00 0.00 0.00 0.00 0.00 0.00 0.00 0.00 0.00 0.00 0.00 0.00 0.00 0.00 0.00 0.00 0.00 0.00 0.00 0.00 0.00 0.00 0.00 0.00 0.00 0.01 0.00 0.00 0.00 0.00 0.00 0.00 0.00 0.01 0.00 0.01 0.03 0.06 0.03 0.00 0.00 0.00 0.00
0.00 0.00 0.00 0.00 0.00 0.00 0.00 0.00 0.00 0.00 0.00 0.00 0.00 0.00 0.00 0.00 0.00 0.00 0.00 0.00 0.00 0.00 0.00 0.00 0.00 0.02 0.00 0.00 0.00 0.00 0.00 0.00 0.00 0.00 0.00 0.00 0.00 0.02 0.03 0.04 0.01 0.00 0.00 0.00 0.00
0.00 0.00 0.00 0.00 0.00 0.00 0.00 0.00 0.00 0.00 0.00 0.00 0.00 0.00 0.00 0.00 0.00 0.00 0.00 0.00 0.00 0.00 0.00 0.01 0.01 0.00 0.00 0.00 0.00 0.00 0.00 0.00 0.00 0.00 0.00 0.00 0.00 0.00 0.00 0.01 0.02 0.00 0.00 0.00 0.00
0.00 0.00 0.00 0.00 0.00 0.00 0.00 0.00 0.00 0.00 0.00 0.00 0.00 0.00 0.00 0.00 0.00 0.02 0.00 0.00 0.00 0.02 0.04 0.01 0.00 0.01 0.03 0.01 0.00 0.00 0.00 0.00 0.00 0.00 0.00 0.00 0.00 0.00 0.00 0.01 0.03 0.00 0.00 0.00 0.00
0.00 0.00 0.00 0.00 0.00 0.00 0.00 0.00 0.00 0.00 0.00 0.00 0.00 0.00 0.00 0.00 0.00 0.00 0.00 0.00 0.01 0.01 0.02 0.02 0.00 0.01 0.00 0.00 0.00 0.00 0.01 0.01 0.00 0.00 0.00 0.00 0.00 0.00 0.00 0.00 0.02 0.00 0.00 0.00 0.00
0.00 0.00 0.00 0.00 0.00 0.00 0.00 0.00 0.00 0.00 0.00 0.00 0.00 0.00 0.00 0.00 0.01 0.00 0.00 0.02 0.00 0.00 0.00 0.00 0.00 0.00 0.01 0.01 0.01 0.00 0.01 0.01 0.00 0.00 0.00 0.01 0.00 0.00 0.00 0.00 0.00 0.00 0.00 0.00 0.00
0.00 0.00 0.00 0.00 0.00 0.00 0.00 0.00 0.00 0.00 0.00 0.00 0.00 0.00 0.00 0.00 0.00 0.00 0.00 0.01 0.00 0.00 0.00 0.00 0.00 0.01 0.03 0.02 0.01 0.00 0.00 0.02 0.01 0.00 0.00 0.00 0.00 0.00 0.00 0.00 0.00 0.00 0.00 0.00 0.00
0.00 0.00 0.00 0.00 0.00 0.00 0.00 0.00 0.00 0.00 0.00 0.00 0.00 0.00 0.00 0.00 0.00 0.00 0.00 0.00 0.00 0.00 0.00 0.00 0.01 0.04 0.01 0.00 0.00 0.00 0.00 0.00 0.01 0.00 0.00 0.00 0.00 0.00 0.00 0.00 0.00 0.00 0.00 0.00 0.00
0.00 0.00 0.00 0.00 0.00 0.00 0.00 0.00 0.00 0.00 0.00 0.00 0.00 0.00 0.00 0.00 0.00 0.00 0.00 0.00 0.00 0.00 0.00 0.01 0.02 0.00 0.00 0.00 0.00 0.00 0.00 0.00 0.00 0.00 0.00 0.01 0.00 0.00 0.00 0.00 0.00 0.00 0.00 0.00 0.00
0.00 0.00 0.00 0.00 0.00 0.00 0.00 0.00 0.00 0.00 0.00 0.00 0.00 0.00 0.00 0.00 0.00 0.00 0.00 0.00 0.00 0.00 0.00 0.01 0.00 0.00 0.00 0.00 0.00 0.00 0.00 0.00 0.00 0.00 0.00 0.01 0.01 0.01 0.00 0.00 0.00 0.00 0.00 0.00 0.00
0.00 0.00 0.00 0.00 0.00 0.00 0.00 0.00 0.00 0.00 0.00 0.00 0.00 0.00 0.00 0.00 0.00 0.00 0.00 0.00 0.00 0.00 0.01 0.00 0.00 0.00 0.00 0.00 0.00 0.00 0.00 0.00 0.00 0.00 0.00 0.00 0.03 0.03 0.05 0.00 0.00 0.00 0.00 0.00 0.00
0.00 0.00 0.00 0.00 0.00 0.00 0.00 0.00 0.00 0.00 0.00 0.00 0.00 0.00 0.00 0.00 0.00 0.00 0.00 0.00 0.00 0.00 0.00 0.00 0.00 0.00 0.00 0.00 0.00 0.00 0.00 0.00 0.00 0.00 0.00 0.00 0.02 0.06 0.04 0.01 0.00 0.00 0.00 0.00 0.00
0.00 0.00 0.00 0.00 0.00 0.00 0.00 0.00 0.00 0.00 0.00 0.00 0.00 0.00 0.00 0.00 0.00 0.00 0.00 0.00 0.00 0.00 0.00 0.00 0.00 0.00 0.00 0.00 0.00 0.00 0.00 0.00 0.00 0.00 0.00 0.00 0.01 0.02 0.04 0.00 0.00 0.00 0.00 0.00 0.00
0.00 0.00 0.00 0.00 0.00 0.00 0.00 0.00 0.00 0.00 0.00 0.00 0.00 0.00 0.00 0.00 0.00 0.00 0.00 0.00 0.00 0.00 0.00 0.00 0.00 0.00 0.00 0.00 0.00 0.00 0.00 0.00 0.00 0.00 0.00 0.00 0.00 0.01 0.00 0.00 0.00 0.00 0.00 0.00 0.00
0.00 0.00 0.00 0.00 0.00 0.00 0.00 0.00 0.00 0.00 0.00 0.00 0.00 0.00 0.00 0.00 0.00 0.00 0.00 0.00 0.00 0.00 0.00 0.00 0.00 0.00 0.00 0.00 0.00 0.00 0.00 0.00 0.00 0.00 0.00 0.00 0.00 0.00 0.00 0.00 0.00 0.00 0.00 0.00 0.00
0.00 0.00 0.00 0.00 0.00 0.00 0.00 0.00 0.00 0.00 0.00 0.00 0.00 0.00 0.00 0.00 0.00 0.00 0.00 0.00 0.00 0.00 0.00 0.00 0.00 0.00 0.00 0.00 0.00 0.00 0.00 0.00 0.00 0.00 0.00 0.00 0.00 0.00 0.00 0.00 0.00 0.00 0.00 0.00 0.00
0.00 0.00 0.00 0.00 0.00 0.00 0.00 0.00 0.00 0.00 0.00 0.00 0.00 0.00 0.00 0.00 0.00 0.00 0.00 0.00 0.00 0.00 0.00 0.00 0.00 0.00 0.00 0.00 0.00 0.00 0.00 0.00 0.00 0.00 0.00 0.00 0.00 0.00 0.00 0.00 0.00 0.00 0.00 0.00 0.00
0.00 0.00 0.00 0.00 0.00 0.00 0.00 0.00 0.00 0.00 0.00 0.00 0.00 0.00 0.00 0.00 0.00 0.00 0.00 0.00 0.00 0.00 0.00 0.00 0.00 0.00 0.00 0.00 0.00 0.00 0.00 0.00 0.00 0.00 0.00 0.00 0.00 0.00 0.00 0.00 0.00 0.00 0.00 0.00 0.00
0.00 0.00 0.00 0.00 0.00 0.00 0.00 0.00 0.00 0.00 0.00 0.00 0.00 0.00 0.00 0.00 0.00 0.00 0.00 0.00 0.00 0.00 0.00 0.00 0.00 0.00 0.00 0.00 0.00 0.00 0.00 0.00 0.00 0.00 0.00 0.00 0.00 0.00 0.00 0.00 0.00 0.00 0.00 0.00 0.00
0.00 0.00 0.00 0.00 0.00 0.00 0.00 0.00 0.00 0.00 0.00 0.00 0.00 0.00 0.00 0.00 0.00 0.00 0.00 0.00 0.00 0.00 0.00 0.00 0.00 0.00 0.00 0.00 0.00 0.00 0.00 0.00 0.00 0.00 0.00 0.00 0.00 0.00 0.00 0.00 0.00 0.00 0.00 0.00 0.00
0.00 0.00 0.00 0.00 0.00 0.00 0.00 0.00 0.00 0.00 0.00 0.00 0.00 0.00 0.00 0.00 0.00 0.00 0.00 0.00 0.00 0.00 0.00 0.00 0.00 0.00 0.00 0.00 0.00 0.00 0.00 0.00 0.00 0.00 0.00 0.00 0.00 0.00 0.00 0.00 0.00 0.00 0.00 0.00 0.00
0.00 0.00 0.00 0.00 0.00 0.00 0.00 0.00 0.00 0.00 0.00 0.00 0.00 0.00 0.00 0.00 0.01 0.00 0.00 0.00 0.00 0.00 0.00 0.00 0.00 0.00 0.00 0.00 0.00 0.00 0.00 0.00 0.00 0.00 0.00 0.00 0.00 0.00 0.01 0.00 0.00 0.00 0.00 0.00 0.00
0.00 0.00 0.00 0.00 0.00 0.00 0.00 0.00 0.00 0.00 0.00 0.00 0.00 0.00 0.00 0.00 0.02 0.04 0.00 0.00 0.00 0.00 0.00 0.00 0.00 0.00 0.00 0.00 0.00 0.00 0.00 0.00 0.00 0.00 0.00 0.00 0.00 0.00 0.00 0.00 0.00 0.00 0.00 0.00 0.00
0.00 0.00 0.00 0.00 0.00 0.00 0.00 0.00 0.00 0.00 0.00 0.00 0.00 0.00 0.00 0.00 0.00 0.00 0.00 0.00 0.00 0.00 0.00 0.00 0.00 0.00 0.00 0.00 0.00 0.00 0.00 0.00 0.00 0.00 0.00 0.00 0.00 0.00 0.00 0.00 0.00 0.00 0.00 0.00 0.00
MSLP
1012.34 1012.03 1011.75 1011.54 1011.33 1011.14 1011.01 1010.95 1010.77 1010.63 1010.54 1010.39 1010.31 1010.14 1009.94 1009.66 1009.18 1008.43 1006.06 1004.69 1004.63 1004.66 1005.02 1004.02 1003.74 1003.64 1003.58 1003.43 1002.80 1004.47 1005.55 1004.04 1002.08 1001.72 1002.76 1002.48 1002.34 1002.73 1003.01 1002.87 1003.64 1004.43 1005.64 1006.53 1007.52
1012.38 1012.09 1011.77 1011.51 1011.27 1011.09 1010.98 1010.84 1010.66 1010.50 1010.42 1010.30 1010.22 1010.12 1009.92 1009.74 1008.49 1006.23 1004.64 1004.14 1004.31 1004.56 1004.64 1003.67 1003.38 1003.27 1002.95 1002.24 1004.88 1005.52 1005.63 1002.99 1001.09 1001.29 1001.35 1001.85 1001.83 1002.17 1002.89 1003.63 1004.53 1005.18 1006.07 1007.04 1007.59
1012.39 1012.11 1011.81 1011.49 1011.20 1011.02 1010.86 1010.68 1010.53 1010.39 1010.26 1010.17 1010.02 1009.91 1009.87 1009.70 1007.41 1004.09 1004.57 1004.18 1004.20 1004.56 1003.94 1003.15 1002.89 1002.86 1002.46 1001.98 1004.97 1005.59 1005.19 1002.36 1001.29 1000.91 1000.82 1001.06 1002.30 1002.89 1003.59 1004.61 1004.81 1005.65 1006.34 1007.23 1007.86
1012.46 1012.11 1011.80 1011.51 1011.20 1010.95 1010.78 1010.63 1010.40 1010.23 1010.17 1010.07 1009.87 1009.77 1009.74 1008.79 1005.41 1004.02 1004.51 1004.33 1004.31 1004.48 1003.73 1003.21 1002.99 1002.57 1002.03 1001.81 1001.45 1003.27 1002.77 1000.18 999.80 999.99 1000.58 1001.25 1001.87 1004.13 1005.03 1005.79 1006.09 1005.84 1006.73 1007.69 1008.12
1012.51 1012.13 1011.77 1011.44 1011.12 1010.87 1010.68 1010.45 1010.22 1010.13 1010.10 1009.94 1009.77 1009.67 1009.14 1006.80 1003.71 1003.99 1004.47 1004.44 1004.58 1004.63 1004.34 1003.70 1003.35 1003.51 1002.06 1000.90 1000.37 1002.20 1000.25 999.95 999.71 999.60 999.93 1001.18 1002.29 1003.52 1005.05 1005.43 1005.79 1005.75 1007.01 1007.73 1007.93
1012.50 1012.11 1011.77 1011.41 1011.07 1010.77 1010.54 1010.30 1010.09 1009.99 1009.97 1009.81 1009.63 1009.59 1008.06 1004.65 1003.01 1003.35 1003.65 1004.23 1003.99 1004.16 1004.37 1004.16 1003.95 1002.55 1001.13 1000.73 1000.60 999.79 999.47 999.58 999.61 999.71 1000.02 1000.58 1001.57 1002.71 1004.14 1005.01 1005.83 1005.71 1006.91 1007.50 1008.11
1012.48 1012.09 1011.71 1011.33 1011.01 1010.67 1010.44 1010.14 1009.94 1009.82 1009.77 1009.65 1009.49 1008.90 1005.93 1002.73 1002.61 1002.87 1002.89 1003.32 1002.93 1004.86 1005.18 1004.21 1002.63 1002.92 1002.01 1000.99 999.58 999.32 999.51 999.32 999.56 999.67 999.99 1000.77 1001.46 1002.39 1003.35 1005.19 1005.72 1005.69 1006.49 1007.40 1007.77
1012.46 1012.05 1011.66 1011.23 1010.90 1010.59 1010.33 1010.03 1009.76 1009.62 1009.55 1009.43 1009.39 1008.14 1003.63 1002.19 1002.11 1002.67 1002.51 1002.01 1002.15 1004.05 1005.72 1003.25 1001.51 1001.72 1001.86 1001.57 1000.37 1000.79 1002.35 1000.94 999.62 999.46 1000.30 1000.59 1001.45 1002.55 1003.30 1004.67 1005.61 1005.89 1006.40 1007.11 1007.62
1012.37 1011.97 1011.55 1011.13 1010.83 1010.49 1010.22 1009.82 1009.42 1009.29 1009.23 1009.13 1008.65 1006.68 1002.73 1002.88 1002.36 1002.42 1002.04 1001.80 1001.41 1002.52 1002.72 1001.26 1001.70 1001.33 1001.82 1001.58 1000.30 1001.51 1004.05 1001.87 1001.06 999.29 999.79 1000.57 1001.04 1002.20 1002.94 1004.37 1005.50 1006.35 1006.59 1006.83 1007.56
1012.22 1011.85 1011.43 1011.05 1010.73 1010.41 1010.02 1009.58 1008.87 1008.96 1008.63 1007.79 1006.42 1004.84 1002.23 1001.62 1001.79 1002.29 1001.70 1001.58 1001.39 1001.05 1000.88 1000.91 1001.55 1002.71 1002.16 1001.21 1000.21 1002.31 1002.57 1003.61 1001.93 999.14 998.97 999.89 1000.71 1001.85 1002.54 1003.98 1005.37 1006.21 1006.55 1006.71 1007.37
1012.10 1011.66 1011.33 1010.95 1010.66 1010.42 1009.83 1008.51 1008.33 1006.99 1005.52 1003.32 1002.19 1000.79 999.95 1000.44 1001.55 1001.92 1001.61 1001.37 1000.83 1000.89 1000.93 1003.06 1002.39 1003.80 1000.70 999.57 998.37 998.32 999.33 1000.50 1000.82 998.85 998.86 1000.03 1000.76 1001.59 1002.57 1003.59 1004.78 1005.74 1006.75 1006.80 1007.21
1011.97 1011.50 1011.15 1010.89 1010.58 1010.41 1009.94 1006.26 1002.30 1001.01 1002.15 1001.93 1000.65 999.85 999.41 1000.19 1000.76 1000.99 1001.55 1001.26 1000.71 1000.69 1001.50 1004.54 1003.55 1001.30 1000.15 997.95 997.01 996.52 996.32 996.65 997.32 998.31 999.48 1001.08 1000.79 1002.27 1002.91 1003.37 1004.14 1005.57 1006.29 1006.51 1006.79
1011.75 1011.35 1010.99 1010.78 1010.45 1010.01 1007.05 1004.07 1001.77 1000.68 999.83 1000.17 999.31 998.67 999.11 999.91 1000.30 1001.14 1001.77 1001.41 1001.01 1001.51 1003.33 1004.49 1003.08 1000.89 999.70 997.02 995.55 995.40 995.21 995.42 996.38 998.56 1001.42 1003.04 1002.03 1002.62 1003.30 1003.49 1003.49 1004.54 1005.94 1006.19 1006.72
1011.47 1011.09 1010.83 1010.63 1010.55 1006.14 1004.89 1002.72 1002.67 1001.55 999.88 998.70 998.99 998.35 998.54 999.57 1000.34 1001.56 1001.47 1001.65 1001.89 1002.61 1003.96 1004.32 1001.60 1000.61 998.38 996.07 994.83 994.10 994.55 994.79 995.72 997.37 1000.59 1002.65 1003.57 1004.99 1005.94 1004.13 1003.47 1003.67 1004.50 1005.39 1006.22
1011.12 1010.79 1010.59 1010.77 1008.62 1004.29 1001.41 1001.13 1001.01 1000.85 998.54 996.93 997.85 997.79 998.15 998.95 1000.03 1001.13 1001.58 1001.69 1001.94 1002.81 1005.69 1003.52 1001.42 999.35 997.45 995.81 994.91 994.31 994.53 994.65 995.11 996.32 999.09 1000.86 1004.08 1006.66 1004.76 1004.08 1002.75 1002.63 1002.69 1003.54 1004.82
1010.67 1010.43 1010.29 1009.43 1008.24 1004.05 1002.50 1001.35 1001.27 1000.16 997.40 996.65 997.00 997.33 998.09 998.59 999.71 1000.44 1001.18 1001.93 1002.11 1003.39 1003.71 1002.16 999.87 998.68 996.77 995.32 994.65 994.47 994.32 994.40 994.78 995.52 997.36 1001.23 1003.71 1006.63 1005.70 1003.13 1001.81 1001.54 1001.90 1002.28 1003.53
1010.15 1009.93 1010.01 1007.83 1003.74 1002.14 1001.95 1001.55 1000.26 998.30 996.09 996.33 996.83 997.04 997.80 998.12 999.09 999.89 1000.39 1001.25 1001.53 1002.35 1001.45 1000.46 998.68 996.90 996.00 994.88 994.06 994.09 993.90 994.62 995.34 995.06 996.48 999.59 1003.09 1004.31 1002.94 1001.87 1000.36 1000.20 1000.71 1001.53 1002.09
1009.30 1009.30 1007.69 1006.13 1003.21 1002.89 1002.07 1001.12 999.05 996.59 995.54 995.29 996.11 996.96 997.25 997.53 997.97 999.02 999.95 1000.59 1000.77 1001.27 1000.29 998.45 996.33 995.43 994.39 994.25 993.78 993.32 993.96 994.57 993.92 994.55 996.13 998.62 1000.22 999.67 999.59 999.88 998.81 999.31 999.83 1000.77 1001.38
1008.51 1007.54 1005.51 1003.32 1004.37 1003.39 1001.91 1000.40 998.61 997.13 994.51 994.75 995.61 996.07 996.44 996.57 996.67 997.45 998.85 999.46 999.92 999.90 999.93 997.90 997.01 995.61 994.61 993.71 993.59 992.91 992.62 992.33 992.68 993.13 994.71 997.55 999.39 998.42 998.29 996.95 997.98 998.87 999.54 1000.13 1000.68
1006.56 1004.18 1002.09 1001.92 1003.03 1002.55 1001.11 1000.00 999.41 997.45 994.49 993.95 994.32 994.85 994.95 995.23 995.69 996.03 997.09 997.91 997.66 997.51 997.96 998.11 997.89 995.44 994.31 993.75 993.28 992.99 992.72 992.27 992.42 994.01 995.74 998.29 1000.49 1001.67 999.98 997.31 997.46 998.40 998.95 999.79 1000.38
1006.13 1001.65 1001.01 1001.51 1001.85 1001.25 999.65 998.44 998.21 996.00 994.50 994.58 994.54 994.34 994.05 994.10 994.74 994.61 994.95 995.02 995.19 995.05 995.13 995.56 995.45 996.42 993.87 993.06 992.49 992.69 992.61 992.44 992.55 993.95 995.03 997.10 998.63 998.48 998.23 996.98 997.02 997.60 998.22 999.19 1000.02
1003.95 1000.49 1000.77 1001.02 1000.74 999.51 998.33 997.01 995.57 994.51 994.65 995.01 995.21 994.95 994.90 994.62 994.00 994.03 993.64 993.21 992.94 993.51 994.01 994.39 994.09 993.75 992.88 992.27 992.39 992.26 992.29 992.45 993.11 993.99 994.72 997.52 998.51 997.10 996.71 996.52 996.19 996.56 997.34 998.60 999.67
1003.53 1000.79 1000.69 1000.38 999.05 997.66 996.94 995.63 995.45 994.79 994.28 994.04 994.15 995.00 995.91 996.27 995.29 993.96 993.35 993.46 993.59 993.78 993.87 993.80 994.00 993.41 992.54 992.33 992.83 992.24 992.19 992.42 993.35 994.87 996.68 998.31 999.54 997.85 997.26 996.37 996.51 996.31 996.89 998.20 999.19
1003.48 999.88 1000.21 1000.17 999.05 997.79 995.91 995.41 995.15 995.39 995.31 995.08 994.69 994.47 994.69 995.45 996.25 995.47 994.22 993.96 994.12 993.75 994.39 994.15 993.44 993.25 993.23 994.16 993.99 993.43 993.03 992.81 993.04 994.29 996.79 997.65 997.79 997.44 997.82 997.02 996.95 996.65 996.93 997.96 998.68
1002.42 999.50 998.59 998.76 998.37 996.97 995.90 995.16 995.29 995.48 995.55 995.61 995.53 995.49 995.81 997.85 999.51 999.84 995.91 994.80 994.59 994.78 994.61 994.18 993.46 993.27 993.57 994.40 994.83 994.50 993.95 993.87 994.06 994.99 994.74 996.41 996.78 997.90 998.90 998.84 996.98 996.88 996.88 997.57 998.31
1004.46 1003.01 1001.04 998.79 997.87 997.15 996.67 996.27 995.96 996.68 996.72 996.39 996.30 996.86 997.81 999.57 1001.67 1000.50 999.93 996.50 998.17 996.66 995.19 994.72 994.46 994.24 994.18 994.88 995.73 994.50 993.94 994.51 994.18 994.08 993.55 994.57 995.38 998.13 998.25 998.14 997.13 997.00 997.38 997.78 998.07
1007.34 1005.32 1003.48 1000.43 998.54 998.23 998.51 998.13 997.80 998.25 998.05 997.85 998.36 998.42 998.39 1000.36 1000.27 999.61 998.68 997.61 997.28 998.51 996.05 994.77 995.80 996.28 994.69 994.37 995.03 995.66 994.13 994.85 994.83 994.73 994.16 994.51 995.22 996.29 996.24 996.55 996.75 997.13 997.64 998.07 998.57
Thickness
5774 5774 5774 5773 5772 5771 5770 5770 5771 5771 5771 5772 5773 5776 5778 5782 5787 5794 5803 5822 5828 5833 5831 5837 5838 5838 5839 5832 5844 5820 5785 5788 5816 5813 5806 5833 5826 5840 5845 5838 5836 5835 5823 5824 5826
5773 5773 5774 5773 5772 5771 5770 5770 5771 5772 5772 5772 5774 5775 5778 5781 5792 5804 5825 5831 5833 5833 5828 5830 5825 5834 5828 5837 5810 5793 5773 5802 5842 5837 5827 5833 5835 5840 5833 5827 5820 5821 5826 5824 5823
5772 5772 5772 5773 5772 5771 5771 5771 5772 5772 5773 5774 5775 5777 5778 5781 5793 5816 5827 5831 5833 5834 5838 5842 5841 5835 5827 5842 5803 5787 5777 5827 5834 5843 5848 5842 5830 5838 5829 5806 5821 5810 5814 5816 5815
5770 5771 5771 5772 5772 5771 5771 5771 5772 5772 5773 5774 5776 5777 5779 5788 5784 5824 5827 5831 5833 5835 5838 5834 5833 5825 5824 5821 5845 5806 5820 5855 5858 5858 5848 5835 5846 5813 5813 5805 5817 5827 5819 5812 5809
5768 5769 5770 5771 5772 5771 5771 5771 5772 5773 5773 5774 5776 5778 5785 5793 5813 5830 5830 5832 5833 5830 5822 5823 5821 5809 5817 5837 5855 5818 5849 5860 5862 5861 5859 5848 5831 5822 5815 5822 5825 5832 5817 5810 5810
5767 5768 5768 5770 5770 5771 5770 5771 5772 5773 5773 5774 5776 5777 5788 5791 5838 5837 5840 5833 5831 5826 5820 5824 5820 5835 5842 5843 5835 5857 5861 5860 5862 5858 5857 5844 5838 5836 5828 5831 5819 5825 5813 5812 5808
5764 5765 5767 5768 5769 5770 5770 5771 5772 5773 5772 5775 5776 5782 5797 5812 5842 5843 5845 5835 5840 5819 5806 5829 5836 5829 5830 5831 5868 5871 5850 5858 5857 5858 5851 5851 5826 5821 5837 5824 5813 5820 5815 5810 5811
5762 5763 5765 5767 5768 5769 5769 5770 5772 5773 5773 5775 5776 5785 5805 5843 5848 5842 5845 5843 5850 5811 5797 5832 5860 5838 5836 5842 5854 5838 5787 5799 5852 5860 5855 5850 5806 5828 5841 5824 5812 5815 5812 5809 5810
5761 5762 5764 5766 5767 5768 5768 5770 5773 5773 5773 5775 5780 5790 5802 5837 5826 5840 5847 5834 5848 5845 5843 5863 5855 5843 5835 5824 5837 5819 5753 5784 5809 5867 5857 5843 5821 5836 5844 5826 5812 5808 5810 5812 5810
5759 5761 5763 5765 5766 5767 5768 5771 5775 5774 5777 5784 5795 5791 5821 5816 5830 5835 5850 5849 5839 5848 5848 5848 5838 5802 5808 5800 5797 5771 5789 5768 5768 5857 5866 5845 5834 5841 5846 5830 5815 5809 5811 5813 5810
5757 5758 5760 5763 5764 5765 5770 5779 5777 5779 5791 5802 5810 5818 5829 5839 5843 5830 5844 5841 5847 5844 5824 5804 5802 5761 5813 5843 5859 5854 5827 5802 5796 5872 5864 5839 5837 5842 5846 5836 5822 5816 5808 5810 5810
5754 5756 5758 5760 5762 5763 5767 5787 5816 5825 5787 5813 5823 5832 5844 5842 5814 5830 5844 5823 5829 5820 5826 5779 5773 5819 5842 5868 5871 5872 5869 5868 5875 5876 5856 5830 5844 5842 5843 5840 5835 5819 5814 5815 5816
5751 5753 5755 5757 5761 5766 5788 5804 5835 5837 5803 5809 5830 5833 5833 5837 5815 5816 5829 5826 5821 5811 5789 5772 5800 5834 5843 5867 5878 5875 5868 5871 5866 5864 5824 5794 5824 5836 5843 5844 5845 5836 5824 5825 5818
5749 5751 5753 5756 5760 5796 5794 5824 5828 5832 5779 5799 5809 5826 5838 5833 5807 5830 5836 5823 5815 5796 5784 5777 5827 5829 5846 5865 5884 5869 5890 5884 5877 5860 5820 5829 5779 5796 5792 5825 5837 5838 5834 5830 5823
5748 5750 5752 5752 5773 5800 5828 5843 5841 5823 5745 5824 5820 5857 5844 5823 5819 5813 5835 5818 5798 5799 5766 5775 5805 5830 5847 5863 5882 5869 5889 5880 5882 5871 5840 5827 5786 5762 5791 5802 5832 5841 5846 5844 5837
5748 5751 5753 5764 5772 5808 5829 5837 5824 5773 5756 5811 5830 5821 5816 5824 5817 5821 5815 5819 5819 5791 5799 5804 5850 5845 5858 5883 5888 5893 5881 5883 5882 5879 5843 5815 5794 5754 5772 5807 5838 5851 5852 5854 5846
5752 5754 5754 5774 5801 5829 5830 5814 5773 5765 5836 5813 5812 5824 5815 5814 5811 5812 5801 5794 5787 5770 5786 5818 5837 5866 5879 5868 5893 5886 5873 5829 5815 5841 5838 5832 5781 5782 5812 5831 5859 5861 5860 5858 5858
5759 5759 5773 5787 5814 5820 5815 5788 5759 5814 5825 5850 5833 5823 5808 5823 5824 5813 5801 5788 5811 5803 5800 5805 5827 5871 5896 5879 5870 5882 5868 5819 5811 5826 5841 5845 5806 5831 5859 5859 5885 5878 5873 5866 5862
5765 5775 5791 5811 5804 5812 5796 5768 5782 5805 5860 5845 5836 5816 5815 5832 5836 5828 5808 5797 5808 5819 5794 5810 5816 5872 5882 5898 5893 5877 5871 5906 5876 5889 5864 5843 5840 5867 5871 5888 5880 5871 5868 5864 5864
5786 5799 5812 5825 5817 5809 5793 5772 5785 5818 5865 5866 5831 5841 5824 5835 5835 5836 5822 5832 5832 5843 5848 5825 5799 5863 5880 5897 5899 5885 5903 5867 5880 5825 5812 5812 5792 5764 5806 5868 5872 5865 5864 5863 5863
5785 5805 5821 5831 5823 5802 5786 5794 5798 5846 5867 5843 5839 5842 5853 5850 5849 5847 5846 5863 5866 5866 5881 5867 5853 5828 5875 5877 5876 5878 5872 5886 5893 5868 5837 5808 5815 5852 5841 5876 5870 5869 5871 5865 5861
5800 5797 5823 5830 5793 5808 5802 5823 5839 5862 5867 5847 5844 5844 5836 5851 5857 5855 5857 5874 5900 5892 5864 5879 5869 5852 5868 5906 5910 5902 5887 5891 5858 5851 5869 5814 5807 5888 5888 5884 5887 5879 5879 5873 5867
5792 5805 5825 5824 5789 5810 5829 5842 5849 5853 5858 5858 5852 5853 5836 5822 5828 5864 5876 5886 5890 5880 5869 5882 5856 5837 5857 5886 5893 5888 5897 5899 5888 5874 5816 5790 5771 5865 5880 5886 5887 5886 5882 5874 5868
5798 5795 5805 5810 5818 5811 5830 5836 5836 5855 5847 5853 5850 5863 5858 5848 5842 5846 5865 5876 5881 5883 5867 5880 5871 5858 5839 5840 5863 5857 5875 5887 5885 5842 5827 5827 5835 5859 5857 5872 5878 5882 5885 5876 5871
5808 5810 5820 5795 5807 5827 5841 5846 5834 5827 5847 5850 5842 5848 5842 5788 5778 5783 5848 5863 5873 5860 5873 5874 5856 5874 5879 5858 5856 5854 5862 5869 5861 5859 5850 5839 5840 5839 5827 5817 5875 5882 5884 5877 5872
5779 5779 5800 5810 5825 5824 5825 5827 5830 5815 5824 5823 5826 5830 5830 5790 5766 5776 5786 5825 5796 5833 5861 5874 5845 5863 5855 5847 5843 5848 5869 5861 5866 5874 5886 5870 5851 5842 5846 5865 5873 5875 5874 5871 5872
5768 5781 5782 5796 5815 5812 5801 5804 5808 5811 5822 5825 5817 5816 5820 5795 5811 5819 5828 5844 5823 5804 5832 5859 5834 5820 5837 5869 5853 5817 5864 5863 5865 5878 5881 5853 5863 5855 5861 5870 5871 5871 5869 5868 5866